Location: Nasgenstadt
(48.2786°N, 9.7553°E)
Time: 17:11:37
(UTC+02:00)

ISS - Visible Passes

Search period start: 18 May 2021 00:00
Search period end: 28 May 2021 00:00
Orbit: 417 x 422 km, 51.6° (Epoch: 18 May)

Date Brightness Start Highest point End Pass type
(mag) Time Alt. Az. Time Alt. Az. Time Alt. Az.
18 May -3.0 01:19:03 10° WNW 01:22:22 53° NNE 01:22:53 47° NE visible
18 May -3.1 22:54:22 10° W 22:57:42 58° NNW 23:01:03 10° ENE visible
19 May -2.8 00:31:33 10° WNW 00:34:50 47° N 00:36:27 25° ENE visible
19 May -1.6 02:08:25 10° WNW 02:09:22 18° WNW 02:09:22 18° WNW visible
19 May -3.5 22:06:50 10° WSW 22:10:11 72° NNW 22:13:34 10° ENE visible
19 May -2.6 23:44:01 10° WNW 23:47:16 45° N 23:50:16 12° ENE visible
20 May -2.7 01:20:56 10° WNW 01:23:11 39° WNW 01:23:11 39° WNW visible
20 May -2.6 22:56:28 10° WNW 22:59:43 45° N 23:03:00 10° ENE visible
21 May -3.4 00:33:28 10° WNW 00:36:50 65° NNE 00:37:06 62° NE visible
21 May -2.8 22:08:53 10° W 22:12:10 49° N 22:15:28 10° ENE visible
21 May -3.1 23:45:59 10° WNW 23:49:19 53° NNE 23:51:03 25° E visible
22 May -1.6 01:22:51 10° WNW 01:23:59 19° W 01:23:59 19° W visible
22 May -2.8 22:58:29 10° WNW 23:01:46 47° N 23:05:02 10° E visible
23 May -3.2 00:35:21 10° WNW 00:37:58 49° W 00:37:58 49° W visible
23 May -2.7 22:10:56 10° WNW 22:14:12 45° N 22:17:28 10° ENE visible
23 May -3.8 23:47:52 10° WNW 23:51:15 84° NNE 23:51:59 52° ESE visible
24 May -3.4 23:00:23 10° WNW 23:03:45 65° NNE 23:06:01 19° E visible
25 May -1.9 00:37:21 10° W 00:38:57 22° W 00:38:57 22° W visible
25 May -3.1 22:12:52 10° WNW 22:16:12 54° NNE 22:19:31 10° E visible
25 May -3.5 23:49:45 10° WNW 23:53:00 48° SSW 23:53:00 48° SSW visible
26 May -3.8 23:02:13 10° WNW 23:05:35 71° SSW 23:07:06 30° SE visible
27 May -1.0 00:39:58 10° W 00:40:02 10° WSW 00:40:02 10° WSW visible
27 May -3.7 22:14:43 10° WNW 22:18:06 84° NNE 22:21:12 12° ESE visible
27 May -2.0 23:51:56 10° W 23:54:09 21° SW 23:54:09 21° SW visible
